owner,sensor,date,latitude,longitude,air_pressure(mBar),qcFlag 
TABS,ioos:station:wmo:42045:1,2012-11-01T00:00:00Z,26.2168,-96.4998,1014.94,11111222 
TABS,ioos:station:wmo:42045:1,2012-11-01T00:30:00Z,26.2168,-96.4998,1015.23,11111222 
TABS,ioos:station:wmo:42045:1,2012-11-01T01:00:00Z,26.2168,-96.4998,1015.1,11111222 
TABS,ioos:station:wmo:42045:1,2012-11-01T01:30:00Z,26.2168,-96.4998,1015.44,11111222 
TABS,ioos:station:wmo:42045:1,2012-11-01T02:00:00Z,26.2168,-96.4998,1015.85,11111222 
TABS,ioos:station:wmo:42045:1,2012-11-01T02:30:00Z,26.2168,-96.4998,1016.13,11111222 
TABS,ioos:station:wmo:42045:1,2012-11-01T03:00:00Z,26.2168,-96.4998,1016.29,11111222 
TABS,ioos:station:wmo:42045:1,2012-11-01T03:30:00Z,26.2168,-96.4998,1016.29,11111222 
TABS,ioos:station:wmo:42045:1,2012-11-01T04:00:00Z,26.2168,-96.4998,1016.37,11111222 
TABS,ioos:station:wmo:42045:1,2012-11-01T04:30:00Z,26.2168,-96.4998,1016.45,11111222 
TABS,ioos:station:wmo:42045:1,2012-11-01T05:00:00Z,26.2168,-96.4998,1016.57,11111222 
TABS,ioos:station:wmo:42045:1,2012-11-01T05:30:00Z,26.2168,-96.4998,1016.53,11111222 
TABS,ioos:station:wmo:42045:1,2012-11-01T06:00:00Z,26.2168,-96.4998,1016.44,11111222 
TABS,ioos:station:wmo:42045:1,2012-11-01T06:30:00Z,26.2168,-96.4998,1016.29,11111222 
TABS,ioos:station:wmo:42045:1,2012-11-01T07:00:00Z,26.2168,-96.4998,1016.2,11111222 
TABS,ioos:station:wmo:42045:1,2012-11-01T07:30:00Z,26.2168,-96.4998,1016.22,11111222 
TABS,ioos:station:wmo:42045:1,2012-11-01T08:00:00Z,26.2168,-96.4998,1015.77,11111222 
TABS,ioos:station:wmo:42045:1,2012-11-01T08:30:00Z,26.2168,-96.4998,1015.81,11111222 
TABS,ioos:station:wmo:42045:1,2012-11-01T09:00:00Z,26.2168,-96.4998,1015.71,11111222 
TABS,ioos:station:wmo:42045:1,2012-11-01T09:30:00Z,26.2168,-96.4998,1015.78,11111222 
TABS,ioos:station:wmo:42045:1,2012-11-01T10:00:00Z,26.2168,-96.4998,1015.87,11111222 
TABS,ioos:station:wmo:42045:1,2012-11-01T10:30:00Z,26.2168,-96.4998,1016.08,11111222 
TABS,ioos:station:wmo:42045:1,2012-11-01T11:00:00Z,26.2168,-96.4998,1016.1,11111222 
TABS,ioos:station:wmo:42045:1,2012-11-01T11:30:00Z,26.2168,-96.4998,1016.0,11111222 
TABS,ioos:station:wmo:42045:1,2012-11-01T12:00:00Z,26.2168,-96.4998,1016.69,11111222 
TABS,ioos:station:wmo:42045:1,2012-11-01T12:30:00Z,26.2168,-96.4998,1017.04,11111222 
TABS,ioos:station:wmo:42045:1,2012-11-01T13:00:00Z,26.2168,-96.4998,1016.66,11111222 
TABS,ioos:station:wmo:42045:1,2012-11-01T13:30:00Z,26.2168,-96.4998,1017.63,11111222 
TABS,ioos:station:wmo:42045:1,2012-11-01T14:00:00Z,26.2168,-96.4998,1017.92,11111222 
TABS,ioos:station:wmo:42045:1,2012-11-01T14:30:00Z,26.2168,-96.4998,1017.88,11111222 
TABS,ioos:station:wmo:42045:1,2012-11-01T15:00:00Z,26.2168,-96.4998,1017.84,11111222 
TABS,ioos:station:wmo:42045:1,2012-11-01T15:30:00Z,26.2168,-96.4998,1018.34,11111222 
TABS,ioos:station:wmo:42045:1,2012-11-01T16:00:00Z,26.2168,-96.4998,1018.69,11111222 
TABS,ioos:station:wmo:42045:1,2012-11-01T16:30:00Z,26.2168,-96.4998,1018.62,11111222 
TABS,ioos:station:wmo:42045:1,2012-11-01T17:00:00Z,26.2168,-96.4998,1018.4,11111222 
TABS,ioos:station:wmo:42045:1,2012-11-01T17:30:00Z,26.2168,-96.4998,1018.02,11111222 
TABS,ioos:station:wmo:42045:1,2012-11-01T18:00:00Z,26.2168,-96.4998,1017.62,11111222 
TABS,ioos:station:wmo:42045:1,2012-11-01T18:30:00Z,26.2168,-96.4998,1017.16,11111222 
TABS,ioos:station:wmo:42045:1,2012-11-01T19:00:00Z,26.2168,-96.4998,1016.78,11111222 
TABS,ioos:station:wmo:42045:1,2012-11-01T19:30:00Z,26.2168,-96.4998,1016.34,11111222 
TABS,ioos:station:wmo:42045:1,2012-11-01T20:00:00Z,26.2168,-96.4998,1016.1,11111222 
TABS,ioos:station:wmo:42045:1,2012-11-01T20:30:00Z,26.2168,-96.4998,1015.9,11111222 
TABS,ioos:station:wmo:42045:1,2012-11-01T21:00:00Z,26.2168,-96.4998,1015.69,11111222 
TABS,ioos:station:wmo:42045:1,2012-11-01T21:30:00Z,26.2168,-96.4998,1015.76,11111222 
TABS,ioos:station:wmo:42045:1,2012-11-01T22:00:00Z,26.2168,-96.4998,1015.55,11111222 
TABS,ioos:station:wmo:42045:1,2012-11-01T22:30:00Z,26.2168,-96.4998,1015.53,11111222 
TABS,ioos:station:wmo:42045:1,2012-11-01T23:00:00Z,26.2168,-96.4998,1015.42,11111222 
TABS,ioos:station:wmo:42045:1,2012-11-01T23:30:00Z,26.2168,-96.4998,1015.54,11111222 
TABS,ioos:station:wmo:42045:1,2012-11-02T00:00:00Z,26.2168,-96.4998,1015.86,11111222 
TABS,ioos:station:wmo:42045:1,2012-11-02T00:30:00Z,26.2168,-96.4998,1015.91,11111222 
TABS,ioos:station:wmo:42045:1,2012-11-02T01:00:00Z,26.2168,-96.4998,1015.98,11111222 
TABS,ioos:station:wmo:42045:1,2012-11-02T01:30:00Z,26.2168,-96.4998,1016.08,11111222 
TABS,ioos:station:wmo:42045:1,2012-11-02T02:00:00Z,26.2168,-96.4998,1016.3,11111222 
TABS,ioos:station:wmo:42045:1,2012-11-02T02:30:00Z,26.2168,-96.4998,1016.53,11111222 
TABS,ioos:station:wmo:42045:1,2012-11-02T03:00:00Z,26.2168,-96.4998,1016.56,11111222 
TABS,ioos:station:wmo:42045:1,2012-11-02T03:30:00Z,26.2168,-96.4998,1016.49,11111222 
TABS,ioos:station:wmo:42045:1,2012-11-02T04:00:00Z,26.2168,-96.4998,1016.26,11111222 
TABS,ioos:station:wmo:42045:1,2012-11-02T04:30:00Z,26.2168,-96.4998,1016.13,11111222 
TABS,ioos:station:wmo:42045:1,2012-11-02T05:00:00Z,26.2168,-96.4998,1016.22,11111222 
TABS,ioos:station:wmo:42045:1,2012-11-02T05:30:00Z,26.2168,-96.4998,1016.03,11111222 
TABS,ioos:station:wmo:42045:1,2012-11-02T06:00:00Z,26.2168,-96.4998,1015.96,11111222 
TABS,ioos:station:wmo:42045:1,2012-11-02T06:30:00Z,26.2168,-96.4998,1015.86,11111222 
TABS,ioos:station:wmo:42045:1,2012-11-02T07:00:00Z,26.2168,-96.4998,1015.71,11111222 
TABS,ioos:station:wmo:42045:1,2012-11-02T07:30:00Z,26.2168,-96.4998,1015.58,11111222 
TABS,ioos:station:wmo:42045:1,2012-11-02T08:00:00Z,26.2168,-96.4998,1015.47,11111222 
TABS,ioos:station:wmo:42045:1,2012-11-02T08:30:00Z,26.2168,-96.4998,1015.44,11111222 
TABS,ioos:station:wmo:42045:1,2012-11-02T09:00:00Z,26.2168,-96.4998,1015.34,11111222 
TABS,ioos:station:wmo:42045:1,2012-11-02T09:30:00Z,26.2168,-96.4998,1015.49,11111222 
TABS,ioos:station:wmo:42045:1,2012-11-02T10:00:00Z,26.2168,-96.4998,1015.42,11111222 
TABS,ioos:station:wmo:42045:1,2012-11-02T10:30:00Z,26.2168,-96.4998,1015.47,11111222 
TABS,ioos:station:wmo:42045:1,2012-11-02T11:00:00Z,26.2168,-96.4998,1015.48,11111222 
TABS,ioos:station:wmo:42045:1,2012-11-02T11:30:00Z,26.2168,-96.4998,1015.67,11111222 
TABS,ioos:station:wmo:42045:1,2012-11-02T12:00:00Z,26.2168,-96.4998,1015.91,11111222 
TABS,ioos:station:wmo:42045:1,2012-11-02T12:30:00Z,26.2168,-96.4998,1016.22,11111222 
TABS,ioos:station:wmo:42045:1,2012-11-02T13:00:00Z,26.2168,-96.4998,1016.42,11111222 
TABS,ioos:station:wmo:42045:1,2012-11-02T13:30:00Z,26.2168,-96.4998,1016.58,11111222 
TABS,ioos:station:wmo:42045:1,2012-11-02T14:00:00Z,26.2168,-96.4998,1016.73,11111222 
TABS,ioos:station:wmo:42045:1,2012-11-02T14:30:00Z,26.2168,-96.4998,1017.22,11111222 
TABS,ioos:station:wmo:42045:1,2012-11-02T15:00:00Z,26.2168,-96.4998,1017.24,11111222 
TABS,ioos:station:wmo:42045:1,2012-11-02T15:30:00Z,26.2168,-96.4998,1017.47,11111222 
TABS,ioos:station:wmo:42045:1,2012-11-02T16:00:00Z,26.2168,-96.4998,1017.4,11111222 
TABS,ioos:station:wmo:42045:1,2012-11-02T16:30:00Z,26.2168,-96.4998,1017.23,11111222 
TABS,ioos:station:wmo:42045:1,2012-11-02T17:00:00Z,26.2168,-96.4998,1017.01,11111222 
TABS,ioos:station:wmo:42045:1,2012-11-02T17:30:00Z,26.2168,-96.4998,1016.89,11111222 
TABS,ioos:station:wmo:42045:1,2012-11-02T18:00:00Z,26.2168,-96.4998,1016.3,11111222 
TABS,ioos:station:wmo:42045:1,2012-11-02T18:30:00Z,26.2168,-96.4998,1015.94,11111222 
TABS,ioos:station:wmo:42045:1,2012-11-02T19:00:00Z,26.2168,-96.4998,1015.4,11111222 
TABS,ioos:station:wmo:42045:1,2012-11-02T19:30:00Z,26.2168,-96.4998,1014.85,11111222 
TABS,ioos:station:wmo:42045:1,2012-11-02T20:00:00Z,26.2168,-96.4998,1014.67,11111222 
TABS,ioos:station:wmo:42045:1,2012-11-02T20:30:00Z,26.2168,-96.4998,1014.56,11111222 
TABS,ioos:station:wmo:42045:1,2012-11-02T21:00:00Z,26.2168,-96.4998,1014.3,11111222 
TABS,ioos:station:wmo:42045:1,2012-11-02T21:30:00Z,26.2168,-96.4998,1014.28,11111222 
TABS,ioos:station:wmo:42045:1,2012-11-02T22:00:00Z,26.2168,-96.4998,1014.16,11111222 
TABS,ioos:station:wmo:42045:1,2012-11-02T22:30:00Z,26.2168,-96.4998,1014.16,11111222 
TABS,ioos:station:wmo:42045:1,2012-11-02T23:00:00Z,26.2168,-96.4998,1014.56,11111222 
TABS,ioos:station:wmo:42045:1,2012-11-02T23:30:00Z,26.2168,-96.4998,1014.42,11111222 
TABS,ioos:station:wmo:42045:1,2012-11-03T00:00:00Z,26.2168,-96.4998,1014.57,11111222 
TABS,ioos:station:wmo:42045:1,2012-11-03T00:30:00Z,26.2168,-96.4998,1014.9,11111222 
TABS,ioos:station:wmo:42045:1,2012-11-03T01:00:00Z,26.2168,-96.4998,1015.12,11111222 
TABS,ioos:station:wmo:42045:1,2012-11-03T01:30:00Z,26.2168,-96.4998,1015.13,11111222 
TABS,ioos:station:wmo:42045:1,2012-11-03T02:00:00Z,26.2168,-96.4998,1015.37,11111222 
TABS,ioos:station:wmo:42045:1,2012-11-03T02:30:00Z,26.2168,-96.4998,1015.65,11111222 
TABS,ioos:station:wmo:42045:1,2012-11-03T03:00:00Z,26.2168,-96.4998,1015.63,11111222 
TABS,ioos:station:wmo:42045:1,2012-11-03T03:30:00Z,26.2168,-96.4998,1015.85,11111222 
TABS,ioos:station:wmo:42045:1,2012-11-03T04:00:00Z,26.2168,-96.4998,1015.85,11111222 
TABS,ioos:station:wmo:42045:1,2012-11-03T04:30:00Z,26.2168,-96.4998,1015.84,11111222 
TABS,ioos:station:wmo:42045:1,2012-11-03T05:00:00Z,26.2168,-96.4998,1015.53,11111222 
TABS,ioos:station:wmo:42045:1,2012-11-03T05:30:00Z,26.2168,-96.4998,1015.26,11111222 
TABS,ioos:station:wmo:42045:1,2012-11-03T06:00:00Z,26.2168,-96.4998,1015.25,11111222 
TABS,ioos:station:wmo:42045:1,2012-11-03T06:30:00Z,26.2168,-96.4998,1015.25,11111222 
TABS,ioos:station:wmo:42045:1,2012-11-03T07:00:00Z,26.2168,-96.4998,1015.34,11111222 
TABS,ioos:station:wmo:42045:1,2012-11-03T07:30:00Z,26.2168,-96.4998,1014.9,11111222 
TABS,ioos:station:wmo:42045:1,2012-11-03T08:00:00Z,26.2168,-96.4998,1014.78,11111222 
TABS,ioos:station:wmo:42045:1,2012-11-03T08:30:00Z,26.2168,-96.4998,1014.64,11111222 
TABS,ioos:station:wmo:42045:1,2012-11-03T09:00:00Z,26.2168,-96.4998,1014.81,11111222 
TABS,ioos:station:wmo:42045:1,2012-11-03T09:30:00Z,26.2168,-96.4998,1014.95,11111222 
TABS,ioos:station:wmo:42045:1,2012-11-03T10:00:00Z,26.2168,-96.4998,1014.79,11111222 
TABS,ioos:station:wmo:42045:1,2012-11-03T10:30:00Z,26.2168,-96.4998,1014.94,11111222 
TABS,ioos:station:wmo:42045:1,2012-11-03T11:00:00Z,26.2168,-96.4998,1014.71,11111222 
TABS,ioos:station:wmo:42045:1,2012-11-03T11:30:00Z,26.2168,-96.4998,1015.56,11111222 
TABS,ioos:station:wmo:42045:1,2012-11-03T12:00:00Z,26.2168,-96.4998,1015.73,11111222 
TABS,ioos:station:wmo:42045:1,2012-11-03T12:30:00Z,26.2168,-96.4998,1016.28,11111222 
TABS,ioos:station:wmo:42045:1,2012-11-03T13:00:00Z,26.2168,-96.4998,1016.31,11111222 
TABS,ioos:station:wmo:42045:1,2012-11-03T13:30:00Z,26.2168,-96.4998,1016.6,11111222 
TABS,ioos:station:wmo:42045:1,2012-11-03T14:00:00Z,26.2168,-96.4998,1016.98,11111222 
TABS,ioos:station:wmo:42045:1,2012-11-03T14:30:00Z,26.2168,-96.4998,1017.03,11111222 
TABS,ioos:station:wmo:42045:1,2012-11-03T15:00:00Z,26.2168,-96.4998,1017.53,11111222 
TABS,ioos:station:wmo:42045:1,2012-11-03T15:30:00Z,26.2168,-96.4998,1017.66,11111222 
TABS,ioos:station:wmo:42045:1,2012-11-03T16:00:00Z,26.2168,-96.4998,1017.93,11111222 
TABS,ioos:station:wmo:42045:1,2012-11-03T16:30:00Z,26.2168,-96.4998,1017.75,11111222 
TABS,ioos:station:wmo:42045:1,2012-11-03T17:00:00Z,26.2168,-96.4998,1017.45,11111222 
TABS,ioos:station:wmo:42045:1,2012-11-03T17:30:00Z,26.2168,-96.4998,1017.15,11111222 
TABS,ioos:station:wmo:42045:1,2012-11-03T18:00:00Z,26.2168,-96.4998,1016.52,11111222 
TABS,ioos:station:wmo:42045:1,2012-11-03T18:30:00Z,26.2168,-96.4998,1016.32,11111222 
TABS,ioos:station:wmo:42045:1,2012-11-03T19:00:00Z,26.2168,-96.4998,1015.96,11111222 
TABS,ioos:station:wmo:42045:1,2012-11-03T19:30:00Z,26.2168,-96.4998,1015.59,11111222 
TABS,ioos:station:wmo:42045:1,2012-11-03T20:00:00Z,26.2168,-96.4998,1015.42,11111222 
TABS,ioos:station:wmo:42045:1,2012-11-03T20:30:00Z,26.2168,-96.4998,1015.0,11111222 
TABS,ioos:station:wmo:42045:1,2012-11-03T21:00:00Z,26.2168,-96.4998,1014.69,11111222 
TABS,ioos:station:wmo:42045:1,2012-11-03T21:30:00Z,26.2168,-96.4998,1014.72,11111222 
TABS,ioos:station:wmo:42045:1,2012-11-03T22:00:00Z,26.2168,-96.4998,1015.53,11111222 
TABS,ioos:station:wmo:42045:1,2012-11-03T22:30:00Z,26.2168,-96.4998,1015.31,11111222 
TABS,ioos:station:wmo:42045:1,2012-11-03T23:00:00Z,26.2168,-96.4998,1015.32,11111222 
TABS,ioos:station:wmo:42045:1,2012-11-03T23:30:00Z,26.2168,-96.4998,1015.19,11111222 
TABS,ioos:station:wmo:42045:1,2012-11-04T00:00:00Z,26.2168,-96.4998,1015.42,11111222 
TABS,ioos:station:wmo:42045:1,2012-11-04T00:30:00Z,26.2168,-96.4998,1015.64,11111222 
TABS,ioos:station:wmo:42045:1,2012-11-04T01:00:00Z,26.2168,-96.4998,1015.97,11111222 
TABS,ioos:station:wmo:42045:1,2012-11-04T01:30:00Z,26.2168,-96.4998,1016.23,11111222 
TABS,ioos:station:wmo:42045:1,2012-11-04T02:00:00Z,26.2168,-96.4998,1016.55,11111222 
TABS,ioos:station:wmo:42045:1,2012-11-04T02:30:00Z,26.2168,-96.4998,1016.47,11111222 
TABS,ioos:station:wmo:42045:1,2012-11-04T03:00:00Z,26.2168,-96.4998,1016.41,11111222 
TABS,ioos:station:wmo:42045:1,2012-11-04T03:30:00Z,26.2168,-96.4998,1016.28,11111222 
TABS,ioos:station:wmo:42045:1,2012-11-04T04:00:00Z,26.2168,-96.4998,1016.63,11111222 
TABS,ioos:station:wmo:42045:1,2012-11-04T04:30:00Z,26.2168,-96.4998,1016.64,11111222 
TABS,ioos:station:wmo:42045:1,2012-11-04T05:00:00Z,26.2168,-96.4998,1016.32,11111222 
TABS,ioos:station:wmo:42045:1,2012-11-04T05:30:00Z,26.2168,-96.4998,1016.44,11111222 
TABS,ioos:station:wmo:42045:1,2012-11-04T06:00:00Z,26.2168,-96.4998,1016.37,11111222 
TABS,ioos:station:wmo:42045:1,2012-11-04T06:30:00Z,26.2168,-96.4998,1016.32,11111222 
TABS,ioos:station:wmo:42045:1,2012-11-04T07:00:00Z,26.2168,-96.4998,1016.38,11111222 
TABS,ioos:station:wmo:42045:1,2012-11-04T07:30:00Z,26.2168,-96.4998,1016.37,11111222 
TABS,ioos:station:wmo:42045:1,2012-11-04T08:00:00Z,26.2168,-96.4998,1016.52,11111222 
TABS,ioos:station:wmo:42045:1,2012-11-04T08:30:00Z,26.2168,-96.4998,1016.36,11111222 
TABS,ioos:station:wmo:42045:1,2012-11-04T09:00:00Z,26.2168,-96.4998,1016.38,11111222 
TABS,ioos:station:wmo:42045:1,2012-11-04T09:30:00Z,26.2168,-96.4998,1016.12,11111222 
TABS,ioos:station:wmo:42045:1,2012-11-04T10:00:00Z,26.2168,-96.4998,1015.74,11111222 
TABS,ioos:station:wmo:42045:1,2012-11-04T10:30:00Z,26.2168,-96.4998,1015.91,11111222 
TABS,ioos:station:wmo:42045:1,2012-11-04T11:00:00Z,26.2168,-96.4998,1016.11,11111222 
TABS,ioos:station:wmo:42045:1,2012-11-04T11:30:00Z,26.2168,-96.4998,1016.52,11111222 
TABS,ioos:station:wmo:42045:1,2012-11-04T12:00:00Z,26.2168,-96.4998,1017.06,11111222 
TABS,ioos:station:wmo:42045:1,2012-11-04T12:30:00Z,26.2168,-96.4998,1017.54,11111222 
TABS,ioos:station:wmo:42045:1,2012-11-04T13:00:00Z,26.2168,-96.4998,1017.86,11111222 
TABS,ioos:station:wmo:42045:1,2012-11-04T13:30:00Z,26.2168,-96.4998,1018.08,11111222 
TABS,ioos:station:wmo:42045:1,2012-11-04T14:00:00Z,26.2168,-96.4998,1018.1,11111222 
TABS,ioos:station:wmo:42045:1,2012-11-04T14:30:00Z,26.2168,-96.4998,1018.03,11111222 
TABS,ioos:station:wmo:42045:1,2012-11-04T15:00:00Z,26.2168,-96.4998,1018.34,11111222 
TABS,ioos:station:wmo:42045:1,2012-11-04T15:30:00Z,26.2168,-96.4998,1018.33,11111222 
TABS,ioos:station:wmo:42045:1,2012-11-04T16:00:00Z,26.2168,-96.4998,1018.54,11111222 
TABS,ioos:station:wmo:42045:1,2012-11-04T16:30:00Z,26.2168,-96.4998,1018.74,11111222 
TABS,ioos:station:wmo:42045:1,2012-11-04T17:00:00Z,26.2168,-96.4998,1018.31,11111222 
TABS,ioos:station:wmo:42045:1,2012-11-04T17:30:00Z,26.2168,-96.4998,1017.87,11111222 
TABS,ioos:station:wmo:42045:1,2012-11-04T18:00:00Z,26.2168,-96.4998,1017.57,11111222 
TABS,ioos:station:wmo:42045:1,2012-11-04T18:30:00Z,26.2168,-96.4998,1017.31,11111222 
TABS,ioos:station:wmo:42045:1,2012-11-04T19:00:00Z,26.2168,-96.4998,1017.09,11111222 
TABS,ioos:station:wmo:42045:1,2012-11-04T19:30:00Z,26.2168,-96.4998,1016.68,11111222 
TABS,ioos:station:wmo:42045:1,2012-11-04T20:00:00Z,26.2168,-96.4998,1016.33,11111222 
TABS,ioos:station:wmo:42045:1,2012-11-04T20:30:00Z,26.2168,-96.4998,1016.24,11111222 
TABS,ioos:station:wmo:42045:1,2012-11-04T21:00:00Z,26.2168,-96.4998,1016.24,11111222 
TABS,ioos:station:wmo:42045:1,2012-11-04T21:30:00Z,26.2168,-96.4998,1016.24,11111222 
TABS,ioos:station:wmo:42045:1,2012-11-04T22:00:00Z,26.2168,-96.4998,1016.45,11111222 
TABS,ioos:station:wmo:42045:1,2012-11-04T22:30:00Z,26.2168,-96.4998,1016.51,11111222 
TABS,ioos:station:wmo:42045:1,2012-11-04T23:00:00Z,26.2168,-96.4998,1016.96,11111222 
TABS,ioos:station:wmo:42045:1,2012-11-04T23:30:00Z,26.2168,-96.4998,1017.11,11111222 
TABS,ioos:station:wmo:42045:1,2012-11-05T00:00:00Z,26.2168,-96.4998,1017.52,11111222 
TABS,ioos:station:wmo:42045:1,2012-11-05T00:30:00Z,26.2168,-96.4998,1017.75,11111222 
TABS,ioos:station:wmo:42045:1,2012-11-05T01:00:00Z,26.2168,-96.4998,1018.05,11111222 
TABS,ioos:station:wmo:42045:1,2012-11-05T01:30:00Z,26.2168,-96.4998,1018.09,11111222 
TABS,ioos:station:wmo:42045:1,2012-11-05T02:00:00Z,26.2168,-96.4998,1018.18,11111222 
TABS,ioos:station:wmo:42045:1,2012-11-05T02:30:00Z,26.2168,-96.4998,1018.22,11111222 
TABS,ioos:station:wmo:42045:1,2012-11-05T03:00:00Z,26.2168,-96.4998,1018.3,11111222 
TABS,ioos:station:wmo:42045:1,2012-11-05T03:30:00Z,26.2168,-96.4998,1018.23,11111222 
TABS,ioos:station:wmo:42045:1,2012-11-05T04:00:00Z,26.2168,-96.4998,1018.2,11111222 
TABS,ioos:station:wmo:42045:1,2012-11-05T04:30:00Z,26.2168,-96.4998,1018.07,11111222 
TABS,ioos:station:wmo:42045:1,2012-11-05T05:00:00Z,26.2168,-96.4998,1017.92,11111222 
TABS,ioos:station:wmo:42045:1,2012-11-05T05:30:00Z,26.2168,-96.4998,1017.78,11111222 
TABS,ioos:station:wmo:42045:1,2012-11-05T06:00:00Z,26.2168,-96.4998,1017.6,11111222 
TABS,ioos:station:wmo:42045:1,2012-11-05T06:30:00Z,26.2168,-96.4998,1017.38,11111222 
TABS,ioos:station:wmo:42045:1,2012-11-05T07:00:00Z,26.2168,-96.4998,1017.31,11111222 
TABS,ioos:station:wmo:42045:1,2012-11-05T07:30:00Z,26.2168,-96.4998,1017.28,11111222 
TABS,ioos:station:wmo:42045:1,2012-11-05T08:00:00Z,26.2168,-96.4998,1017.24,11111222 
TABS,ioos:station:wmo:42045:1,2012-11-05T08:30:00Z,26.2168,-96.4998,1017.15,11111222 
TABS,ioos:station:wmo:42045:1,2012-11-05T09:00:00Z,26.2168,-96.4998,1016.84,11111222 
TABS,ioos:station:wmo:42045:1,2012-11-05T09:30:00Z,26.2168,-96.4998,1016.7,11111222 
TABS,ioos:station:wmo:42045:1,2012-11-05T10:00:00Z,26.2168,-96.4998,1016.61,11111222 
TABS,ioos:station:wmo:42045:1,2012-11-05T10:30:00Z,26.2168,-96.4998,1016.54,11111222 
TABS,ioos:station:wmo:42045:1,2012-11-05T11:00:00Z,26.2168,-96.4998,1016.68,11111222 
TABS,ioos:station:wmo:42045:1,2012-11-05T11:30:00Z,26.2168,-96.4998,1016.65,11111222 
TABS,ioos:station:wmo:42045:1,2012-11-05T12:00:00Z,26.2168,-96.4998,1016.93,11111222 
TABS,ioos:station:wmo:42045:1,2012-11-05T12:30:00Z,26.2168,-96.4998,1017.0,11111222 
TABS,ioos:station:wmo:42045:1,2012-11-05T13:00:00Z,26.2168,-96.4998,1017.1,11111222 
TABS,ioos:station:wmo:42045:1,2012-11-05T13:30:00Z,26.2168,-96.4998,1017.46,11111222 
TABS,ioos:station:wmo:42045:1,2012-11-05T14:00:00Z,26.2168,-96.4998,1017.89,11111222 
TABS,ioos:station:wmo:42045:1,2012-11-05T14:30:00Z,26.2168,-96.4998,1018.13,11111222 
TABS,ioos:station:wmo:42045:1,2012-11-05T15:00:00Z,26.2168,-96.4998,1018.22,11111222 
TABS,ioos:station:wmo:42045:1,2012-11-05T15:30:00Z,26.2168,-96.4998,1018.56,11111222 
TABS,ioos:station:wmo:42045:1,2012-11-05T16:00:00Z,26.2168,-96.4998,1018.53,11111222 
TABS,ioos:station:wmo:42045:1,2012-11-05T16:30:00Z,26.2168,-96.4998,1018.38,11111222 
TABS,ioos:station:wmo:42045:1,2012-11-05T17:00:00Z,26.2168,-96.4998,1018.12,11111222 
TABS,ioos:station:wmo:42045:1,2012-11-05T17:30:00Z,26.2168,-96.4998,1017.88,11111222 
TABS,ioos:station:wmo:42045:1,2012-11-05T18:00:00Z,26.2168,-96.4998,1017.37,11111222 
TABS,ioos:station:wmo:42045:1,2012-11-05T18:30:00Z,26.2168,-96.4998,1016.81,11111222 
TABS,ioos:station:wmo:42045:1,2012-11-05T19:00:00Z,26.2168,-96.4998,1016.24,11111222 
TABS,ioos:station:wmo:42045:1,2012-11-05T19:30:00Z,26.2168,-96.4998,1015.87,11111222 
TABS,ioos:station:wmo:42045:1,2012-11-05T20:00:00Z,26.2168,-96.4998,1015.54,11111222 
TABS,ioos:station:wmo:42045:1,2012-11-05T20:30:00Z,26.2168,-96.4998,1015.37,11111222 
TABS,ioos:station:wmo:42045:1,2012-11-05T21:00:00Z,26.2168,-96.4998,1015.17,11111222 
TABS,ioos:station:wmo:42045:1,2012-11-05T21:30:00Z,26.2168,-96.4998,1015.07,11111222 
TABS,ioos:station:wmo:42045:1,2012-11-05T22:00:00Z,26.2168,-96.4998,1015.1,11111222 
TABS,ioos:station:wmo:42045:1,2012-11-05T22:30:00Z,26.2168,-96.4998,1015.29,11111222 
TABS,ioos:station:wmo:42045:1,2012-11-05T23:00:00Z,26.2168,-96.4998,1015.21,11111222 
TABS,ioos:station:wmo:42045:1,2012-11-05T23:30:00Z,26.2168,-96.4998,1015.27,11111222 
TABS,ioos:station:wmo:42045:1,2012-11-06T00:00:00Z,26.2168,-96.4998,1015.31,11111222 
TABS,ioos:station:wmo:42045:1,2012-11-06T00:30:00Z,26.2168,-96.4998,1015.6,11111222 
TABS,ioos:station:wmo:42045:1,2012-11-06T01:00:00Z,26.2168,-96.4998,1015.9,11111222 
TABS,ioos:station:wmo:42045:1,2012-11-06T01:30:00Z,26.2168,-96.4998,1016.18,11111222 
TABS,ioos:station:wmo:42045:1,2012-11-06T02:00:00Z,26.2168,-96.4998,1016.39,11111222 
TABS,ioos:station:wmo:42045:1,2012-11-06T02:30:00Z,26.2168,-96.4998,1016.45,11111222 
TABS,ioos:station:wmo:42045:1,2012-11-06T03:00:00Z,26.2168,-96.4998,1016.58,11111222 
TABS,ioos:station:wmo:42045:1,2012-11-06T03:30:00Z,26.2168,-96.4998,1016.36,11111222 
TABS,ioos:station:wmo:42045:1,2012-11-06T04:00:00Z,26.2168,-96.4998,1016.2,11111222 
TABS,ioos:station:wmo:42045:1,2012-11-06T04:30:00Z,26.2168,-96.4998,1016.04,11111222 
TABS,ioos:station:wmo:42045:1,2012-11-06T05:00:00Z,26.2168,-96.4998,1015.96,11111222 
TABS,ioos:station:wmo:42045:1,2012-11-06T05:30:00Z,26.2168,-96.4998,1015.78,11111222 
TABS,ioos:station:wmo:42045:1,2012-11-06T06:00:00Z,26.2168,-96.4998,1015.66,11111222 
TABS,ioos:station:wmo:42045:1,2012-11-06T06:30:00Z,26.2168,-96.4998,1015.45,11111222 
TABS,ioos:station:wmo:42045:1,2012-11-06T07:00:00Z,26.2168,-96.4998,1015.16,11111222 
TABS,ioos:station:wmo:42045:1,2012-11-06T07:30:00Z,26.2168,-96.4998,1015.29,11111222 
TABS,ioos:station:wmo:42045:1,2012-11-06T08:00:00Z,26.2168,-96.4998,1014.84,11111222 
TABS,ioos:station:wmo:42045:1,2012-11-06T08:30:00Z,26.2168,-96.4998,1014.89,11111222 
TABS,ioos:station:wmo:42045:1,2012-11-06T09:00:00Z,26.2168,-96.4998,1015.1,11111222 
TABS,ioos:station:wmo:42045:1,2012-11-06T09:30:00Z,26.2168,-96.4998,1015.17,11111222 
TABS,ioos:station:wmo:42045:1,2012-11-06T10:00:00Z,26.2168,-96.4998,1015.37,11111222 
TABS,ioos:station:wmo:42045:1,2012-11-06T10:30:00Z,26.2168,-96.4998,1015.81,11111222 
TABS,ioos:station:wmo:42045:1,2012-11-06T11:00:00Z,26.2168,-96.4998,1016.03,11111222 
TABS,ioos:station:wmo:42045:1,2012-11-06T11:30:00Z,26.2168,-96.4998,1016.58,11111222 
TABS,ioos:station:wmo:42045:1,2012-11-06T12:00:00Z,26.2168,-96.4998,1017.92,11111222 
TABS,ioos:station:wmo:42045:1,2012-11-06T12:30:00Z,26.2168,-96.4998,1018.71,11111222 
TABS,ioos:station:wmo:42045:1,2012-11-06T13:00:00Z,26.2168,-96.4998,1018.85,11111222 
TABS,ioos:station:wmo:42045:1,2012-11-06T13:30:00Z,26.2168,-96.4998,1018.74,11111222 
TABS,ioos:station:wmo:42045:1,2012-11-06T14:00:00Z,26.2168,-96.4998,1018.7,11111222 
TABS,ioos:station:wmo:42045:1,2012-11-06T14:30:00Z,26.2168,-96.4998,1019.08,11111222 
TABS,ioos:station:wmo:42045:1,2012-11-06T15:00:00Z,26.2168,-96.4998,1019.18,11111222 
TABS,ioos:station:wmo:42045:1,2012-11-06T15:30:00Z,26.2168,-96.4998,1019.49,11111222 
TABS,ioos:station:wmo:42045:1,2012-11-06T16:00:00Z,26.2168,-96.4998,1019.44,11111222 
TABS,ioos:station:wmo:42045:1,2012-11-06T16:30:00Z,26.2168,-96.4998,1019.47,11111222 
TABS,ioos:station:wmo:42045:1,2012-11-06T17:00:00Z,26.2168,-96.4998,1019.36,11111222 
TABS,ioos:station:wmo:42045:1,2012-11-06T17:30:00Z,26.2168,-96.4998,1019.08,11111222 
TABS,ioos:station:wmo:42045:1,2012-11-06T18:00:00Z,26.2168,-96.4998,1018.74,11111222 
TABS,ioos:station:wmo:42045:1,2012-11-06T18:30:00Z,26.2168,-96.4998,1018.56,11111222 